This is the latest recevied weather packets stored in our database for station/object OK2ZA-6. If no packets are shown the sender has not sent any weather packets the latest 10 day(s).
| Time | Temp. | Humidity | Pressure | Rain* | Wind** | Luminosity | Snow |
|---|---|---|---|---|---|---|---|
| 1787962804 | 17.78° C | 90% | 1014.3 hPa | 0.51 mm | - | - | - |
| 1787962204 | 17.78° C | 90% | 1014.1 hPa | 0.76 mm | - | - | - |
| 1787961604 | 17.22° C | 90% | 1014.1 hPa | 1.27 mm | - | - | - |
| 1787961004 | 17.22° C | 90% | 1014.1 hPa | 1.27 mm | - | - | - |
| 1787960404 | 17.22° C | 90% | 1014 hPa | 1.52 mm | - | - | - |
| 1787959804 | 17.22° C | 90% | 1013.7 hPa | 1.78 mm | - | - | - |
| 1787959204 | 17.22° C | 90% | 1013.5 hPa | 3.05 mm | - | - | - |
| 1787958604 | 17.22° C | 90% | 1013.4 hPa | 3.3 mm | - | - | - |
| 1787958004 | 17.22° C | 89% | 1013.7 hPa | 3.81 mm | - | - | - |
| 1787957403 | 17.22° C | 89% | 1013.8 hPa | 3.81 mm | - | - | - |
| 1787956804 | 17.22° C | 86% | 1013 hPa | 4.06 mm | - | - | - |
| 1787956204 | 17.78° C | 85% | 1013.3 hPa | 3.81 mm | - | - | - |
| 1787955604 | 17.78° C | 87% | 1012.9 hPa | 2.29 mm | - | - | - |
| 1787955005 | 18.33° C | 86% | 1012.8 hPa | 2.03 mm | - | - | - |
| 1787954417 | 18.89° C | 83% | 1013.3 hPa | 1.02 mm | - | - | - |
| 1787953804 | 19.44° C | 78% | 1013.3 hPa | 0.76 mm | - | - | - |
| 1787953204 | 20.56° C | 71% | 1013.5 hPa | 0.25 mm | - | - | - |
| 1787952604 | 21.11° C | 67% | 1012.8 hPa | 0 mm | - | - | - |
| 1787952004 | 21.11° C | 63% | 1012.3 hPa | 0 mm | - | - | - |
| 1787951404 | 21.67° C | 61% | 1011.9 hPa | 0 mm | - | - | - |
| 1787950804 | 21.67° C | 62% | 1012 hPa | 0 mm | - | - | - |
| 1787950204 | 21.67° C | 62% | 1011.7 hPa | 0 mm | - | - | - |
| 1787949604 | 21.11° C | 65% | 1012 hPa | 0.25 mm | - | - | - |
| 1787949004 | 20.56° C | 71% | 1012.3 hPa | 0.25 mm | - | - | - |
| 1787948404 | 20° C | 74% | 1012.9 hPa | 0.25 mm | - | - | - |
* Rain latest hour (hover to see other rain measurements)
** Current wind speed in m/s (hover to see current wind gust speed)